星链-36281(STARLINK-36281)

导读

STARLINK-36281是美国于2026年1月29日发射的星链系列卫星,归属于太空探索技术公司SpaceX的星链卫星互联网项目。星链项目旨在构建全球卫星互联网星座,为全球偏远、无网络覆盖区域及传统网络覆盖薄弱地区提供高速低延迟的宽带互联网服务,该卫星入轨后将推进星链星座组网进程,完善全球网络服务覆盖能力。

基本信息
目录编号:
67605
目录名称:
STARLINK-36281
国际标识:
2026-018S
轨道中心:
EARTH
卫星名称:
星链-36281
卫星全名:
星链-36281(STARLINK-36281)
卫星状态:
在轨 (已飞行135 天)
发射日期:
2026-01-29 UTC
国别 :
美国 (US)
星等 :
--
轨道信息
数据来源 国际轨道数据
星历时间: 2026-06-13T04:08:13+0800
8小时前
查看轨道信息
半长轴: 6843.549km
偏心率: 0.0000285
轨道倾角: 97.285°
近地点辐角 138.097°
升交点赤经 228.665°
平近点角 222.029°
近地点: 465.216km
远地点: 465.608km
周期: 93.904分钟
每日圈数: 15.334891
详细信息
固有亮度:
5
最大亮度:
2.5
卫星平台:
Starlink V1.0
覆盖范围:
全球
运营商:
太空探索技术公司
运营商所在国:
美国
制造商(研发单位):
太空探索技术公司
制造商所在国:
美国
使用方式:
暂无
卫星简介
Starlink 计划是 SpaceX 推出的全球卫星互联网项目,通过发射低轨道卫星,为全球尤其是偏远地区提供高速、低延迟的互联网服务。自 2019 年起,Starlink 已部署数千颗卫星,旨在缩小全球数字鸿沟,推动互联网普及。该项目还为军事、航空等行业提供通信支持,带来广泛经济效益。
2D轨道图
3D轨道图
轨道高度分析图
轨道倾角分析图
轨道综合分析图
查看轨道综合分析图